Time,TemperatureF,DewpointF,PressureIn,WindDirection,WindDirectionDegrees,WindSpeedMPH,WindSpeedGustMPH,Humidity,HourlyPrecipIn,Conditions,Clouds,dailyrainin,SoftwareType,DateUTC
2013-03-19 00:02:00,39.9,11.1,30.53,WNW,292,4.0,19.0,30,0.00,,,0.00,meteohub,2013-03-19 06:02:00,
2013-03-19 00:07:00,40.1,10.4,30.53,SSW,202,8.0,10.0,29,0.00,,,0.00,meteohub,2013-03-19 06:07:00,
2013-03-19 00:12:00,40.3,8.2,30.53,WSW,248,6.0,10.0,26,0.00,,,0.00,meteohub,2013-03-19 06:12:00,
2013-03-19 00:17:00,40.3,3.6,30.53,WNW,292,10.0,16.0,21,0.00,,,0.00,meteohub,2013-03-19 06:17:00,
2013-03-19 00:22:00,39.9,5.2,30.53,WNW,292,8.0,16.0,23,0.00,,,0.00,meteohub,2013-03-19 06:22:00,
2013-03-19 00:27:00,39.9,3.2,30.53,NNW,338,5.0,16.0,21,0.00,,,0.00,meteohub,2013-03-19 06:27:00,
2013-03-19 00:32:00,39.7,3.0,30.53,WNW,292,5.0,13.0,21,0.00,,,0.00,meteohub,2013-03-19 06:32:00,
2013-03-19 00:37:00,39.7,3.0,30.53,WNW,292,1.0,12.0,21,0.00,,,0.00,meteohub,2013-03-19 06:37:00,
2013-03-19 00:42:00,39.4,4.8,30.53,WNW,292,6.0,15.0,23,0.00,,,0.00,meteohub,2013-03-19 06:42:00,
2013-03-19 00:48:00,39.0,2.5,30.53,NNW,338,4.0,15.0,21,0.00,,,0.00,meteohub,2013-03-19 06:48:00,
2013-03-19 00:53:00,39.0,-3.3,30.53,NNW,338,6.0,15.0,16,0.00,,,0.00,meteohub,2013-03-19 06:53:00,
2013-03-19 00:59:00,39.2,-12.6,30.53,SSW,202,12.0,15.0,10,0.00,,,0.00,meteohub,2013-03-19 06:59:00,
2013-03-19 01:04:00,39.4,-12.5,30.53,WSW,248,11.0,13.0,10,0.00,,,0.00,meteohub,2013-03-19 07:04:00,
2013-03-19 01:09:00,39.7,-12.3,30.53,WNW,292,7.0,13.0,10,0.00,,,0.00,meteohub,2013-03-19 07:09:00,
2013-03-19 01:14:00,39.7,-12.3,30.53,NNE,22,3.0,15.0,10,0.00,,,0.00,meteohub,2013-03-19 07:14:00,
2013-03-19 01:19:00,39.6,-12.5,30.53,NNW,338,4.0,15.0,10,0.00,,,0.00,meteohub,2013-03-19 07:19:00,
2013-03-19 01:24:00,39.2,-12.6,30.53,West,270,3.0,13.0,10,0.00,,,0.00,meteohub,2013-03-19 07:24:00,
2013-03-19 01:30:00,39.0,-12.8,30.53,NNW,338,10.0,11.0,10,0.00,,,0.00,meteohub,2013-03-19 07:30:00,
2013-03-19 01:35:00,39.0,-12.8,30.50,WNW,292,6.0,15.0,10,0.00,,,0.00,meteohub,2013-03-19 07:35:00,
2013-03-19 01:40:00,39.2,-12.6,30.50,SSW,202,4.0,15.0,10,0.00,,,0.00,meteohub,2013-03-19 07:40:00,
2013-03-19 01:45:00,39.2,-12.6,30.50,WNW,292,8.0,15.0,10,0.00,,,0.00,meteohub,2013-03-19 07:45:00,
2013-03-19 01:50:00,38.7,-13.0,30.53,NNW,338,7.0,15.0,10,0.00,,,0.00,meteohub,2013-03-19 07:50:00,
2013-03-19 01:55:00,38.8,-13.0,30.53,WNW,292,4.0,12.0,10,0.00,,,0.00,meteohub,2013-03-19 07:55:00,
2013-03-19 02:01:00,39.0,-12.8,30.53,SSW,202,6.0,12.0,10,0.00,,,0.00,meteohub,2013-03-19 08:01:00,
2013-03-19 02:06:00,39.2,-12.6,30.53,NNW,338,11.0,15.0,10,0.00,,,0.00,meteohub,2013-03-19 08:06:00,
2013-03-19 02:11:00,39.0,-12.8,30.53,NNW,338,7.0,15.0,10,0.00,,,0.00,meteohub,2013-03-19 08:11:00,
2013-03-19 02:16:00,39.2,-12.6,30.53,WNW,292,8.0,15.0,10,0.00,,,0.00,meteohub,2013-03-19 08:16:00,
2013-03-19 02:22:00,39.4,-12.5,30.53,WSW,248,6.0,15.0,10,0.00,,,0.00,meteohub,2013-03-19 08:22:00,
2013-03-19 02:27:00,39.2,-12.6,30.53,NNE,22,2.0,15.0,10,0.00,,,0.00,meteohub,2013-03-19 08:27:00,
2013-03-19 02:32:00,38.8,-13.0,30.53,NNW,338,11.0,15.0,10,0.00,,,0.00,meteohub,2013-03-19 08:32:00,
2013-03-19 02:37:00,39.0,-12.8,30.53,NNW,338,2.0,25.0,10,0.00,,,0.00,meteohub,2013-03-19 08:37:00,
2013-03-19 02:42:00,39.0,-12.8,30.53,WNW,292,6.0,25.0,10,0.00,,,0.00,meteohub,2013-03-19 08:42:00,
2013-03-19 02:48:00,39.2,-12.6,30.53,WSW,248,8.0,25.0,10,0.00,,,0.00,meteohub,2013-03-19 08:48:00,
2013-03-19 02:53:00,39.2,-12.6,30.53,WNW,292,6.0,15.0,10,0.00,,,0.00,meteohub,2013-03-19 08:53:00,
2013-03-19 02:58:00,38.5,-13.2,30.53,NNW,338,5.0,15.0,10,0.00,,,0.00,meteohub,2013-03-19 08:58:00,
2013-03-19 03:03:00,38.1,-13.5,30.53,SSW,202,4.0,13.0,10,0.00,,,0.00,meteohub,2013-03-19 09:03:00,
2013-03-19 03:08:00,37.8,-13.7,30.53,NNW,338,6.0,13.0,10,0.00,,,0.00,meteohub,2013-03-19 09:08:00,
2013-03-19 03:13:00,37.9,-13.7,30.53,WNW,292,6.0,10.0,10,0.00,,,0.00,meteohub,2013-03-19 09:13:00,
2013-03-19 03:18:00,37.6,-13.9,30.53,NNW,338,3.0,10.0,10,0.00,,,0.00,meteohub,2013-03-19 09:18:00,
2013-03-19 03:23:00,37.6,-13.9,30.53,NNW,338,2.0,10.0,10,0.00,,,0.00,meteohub,2013-03-19 09:23:00,
2013-03-19 03:29:00,38.1,-13.5,30.53,NNW,338,14.0,14.0,10,0.00,,,0.00,meteohub,2013-03-19 09:29:00,
2013-03-19 03:34:00,38.5,-13.2,30.56,WNW,292,11.0,14.0,10,0.00,,,0.00,meteohub,2013-03-19 09:34:00,
2013-03-19 03:39:00,38.1,-13.5,30.56,NNE,22,3.0,15.0,10,0.00,,,0.00,meteohub,2013-03-19 09:39:00,
2013-03-19 03:44:00,36.7,-12.8,30.56,SSW,202,2.0,15.0,11,0.00,,,0.00,meteohub,2013-03-19 09:44:00,
2013-03-19 03:49:00,36.9,-12.6,30.56,NNW,338,6.0,15.0,11,0.00,,,0.00,meteohub,2013-03-19 09:49:00,
2013-03-19 03:55:00,38.1,-13.5,30.56,WNW,292,11.0,11.0,10,0.00,,,0.00,meteohub,2013-03-19 09:55:00,
2013-03-19 04:00:00,38.1,-13.5,30.56,WNW,292,8.0,20.0,10,0.00,,,0.00,meteohub,2013-03-19 10:00:00,
2013-03-19 04:06:00,37.9,-13.7,30.56,NNW,338,9.0,20.0,10,0.00,,,0.00,meteohub,2013-03-19 10:06:00,
2013-03-19 04:11:00,37.6,-13.9,30.56,NNW,338,6.0,14.0,10,0.00,,,0.00,meteohub,2013-03-19 10:11:00,
2013-03-19 04:16:00,37.4,-14.1,30.56,NNW,338,11.0,14.0,10,0.00,,,0.00,meteohub,2013-03-19 10:16:00,
2013-03-19 04:21:00,37.6,-13.9,30.56,NNW,338,6.0,14.0,10,0.00,,,0.00,meteohub,2013-03-19 10:21:00,
2013-03-19 04:27:00,37.4,-14.1,30.56,NNW,338,6.0,13.0,10,0.00,,,0.00,meteohub,2013-03-19 10:27:00,
2013-03-19 04:32:00,37.4,-14.1,30.56,NW,315,13.0,13.0,10,0.00,,,0.00,meteohub,2013-03-19 10:32:00,
2013-03-19 04:37:00,37.4,-14.1,30.56,WNW,292,6.0,13.0,10,0.00,,,0.00,meteohub,2013-03-19 10:37:00,
2013-03-19 04:42:00,36.9,-12.6,30.56,NNE,22,7.0,13.0,11,0.00,,,0.00,meteohub,2013-03-19 10:42:00,
2013-03-19 04:47:00,37.2,-12.3,30.56,WNW,292,11.0,13.0,11,0.00,,,0.00,meteohub,2013-03-19 10:47:00,
2013-03-19 04:52:00,36.9,-12.6,30.56,WNW,292,5.0,13.0,11,0.00,,,0.00,meteohub,2013-03-19 10:52:00,
2013-03-19 04:58:00,36.9,-12.6,30.56,NNW,338,3.0,13.0,11,0.00,,,0.00,meteohub,2013-03-19 10:58:00,
2013-03-19 05:03:00,36.5,-12.8,30.56,NNW,338,7.0,11.0,11,0.00,,,0.00,meteohub,2013-03-19 11:03:00,
2013-03-19 05:08:00,37.0,-12.5,30.59,WNW,292,8.0,10.0,11,0.00,,,0.00,meteohub,2013-03-19 11:08:00,
2013-03-19 05:13:00,36.9,-12.6,30.59,WSW,248,8.0,15.0,11,0.00,,,0.00,meteohub,2013-03-19 11:13:00,
2013-03-19 05:19:00,36.9,-12.6,30.59,NNW,338,6.0,15.0,11,0.00,,,0.00,meteohub,2013-03-19 11:19:00,
2013-03-19 05:24:00,37.2,-12.3,30.59,WNW,292,5.0,13.0,11,0.00,,,0.00,meteohub,2013-03-19 11:24:00,
2013-03-19 05:29:00,36.3,-13.0,30.59,NNW,338,4.0,15.0,11,0.00,,,0.00,meteohub,2013-03-19 11:29:00,
2013-03-19 05:35:00,36.1,-13.2,30.56,WNW,292,2.0,15.0,11,0.00,,,0.00,meteohub,2013-03-19 11:35:00,
2013-03-19 05:40:00,35.6,-13.5,30.56,NNW,338,5.0,8.0,11,0.00,,,0.00,meteohub,2013-03-19 11:40:00,
2013-03-19 05:46:00,36.1,-13.2,30.56,NNW,338,11.0,13.0,11,0.00,,,0.00,meteohub,2013-03-19 11:46:00,
2013-03-19 05:51:00,36.3,-13.0,30.59,NNE,22,6.0,13.0,11,0.00,,,0.00,meteohub,2013-03-19 11:51:00,
2013-03-19 05:56:00,35.8,-13.4,30.59,NNW,338,3.0,13.0,11,0.00,,,0.00,meteohub,2013-03-19 11:56:00,
2013-03-19 06:01:00,35.2,-13.9,30.59,NNW,338,11.0,11.0,11,0.00,,,0.00,meteohub,2013-03-19 12:01:00,
2013-03-19 06:06:00,35.4,-13.7,30.59,NNW,338,8.0,11.0,11,0.00,,,0.00,meteohub,2013-03-19 12:06:00,
2013-03-19 06:11:00,35.8,-13.4,30.59,NNW,338,13.0,13.0,11,0.00,,,0.00,meteohub,2013-03-19 12:11:00,
2013-03-19 06:17:00,36.0,-13.4,30.59,NNW,338,11.0,15.0,11,0.00,,,0.00,meteohub,2013-03-19 12:17:00,
2013-03-19 06:22:00,35.8,-13.4,30.62,WNW,292,6.0,15.0,11,0.00,,,0.00,meteohub,2013-03-19 12:22:00,
2013-03-19 06:27:00,35.4,-13.7,30.62,NNW,338,2.0,13.0,11,0.00,,,0.00,meteohub,2013-03-19 12:27:00,
2013-03-19 06:32:00,34.5,-14.4,30.62,NNW,338,3.0,13.0,11,0.00,,,0.00,meteohub,2013-03-19 12:32:00,
2013-03-19 06:37:00,34.0,-14.8,30.62,NNW,338,3.0,10.0,11,0.00,,,0.00,meteohub,2013-03-19 12:37:00,
2013-03-19 06:42:00,33.3,-13.7,30.62,NNW,338,5.0,6.0,12,0.00,,,0.00,meteohub,2013-03-19 12:42:00,
2013-03-19 06:47:00,33.6,-13.4,30.62,WNW,292,6.0,6.0,12,0.00,,,0.00,meteohub,2013-03-19 12:47:00,
2013-03-19 06:52:00,33.8,-15.0,30.62,NNW,338,6.0,7.0,11,0.00,,,0.00,meteohub,2013-03-19 12:52:00,
2013-03-19 06:57:00,34.0,-14.8,30.62,NW,315,10.0,10.0,11,0.00,,,0.00,meteohub,2013-03-19 12:57:00,
2013-03-19 07:02:00,34.0,-14.8,30.62,NNW,338,6.0,11.0,11,0.00,,,0.00,meteohub,2013-03-19 13:02:00,
2013-03-19 07:07:00,33.6,-13.4,30.65,NNW,338,4.0,11.0,12,0.00,,,0.00,meteohub,2013-03-19 13:07:00,
2013-03-19 07:12:00,33.8,-15.0,30.65,NNW,338,6.0,10.0,11,0.00,,,0.00,meteohub,2013-03-19 13:12:00,
2013-03-19 07:17:00,34.0,-14.8,30.65,NNE,22,10.0,11.0,11,0.00,,,0.00,meteohub,2013-03-19 13:17:00,
2013-03-19 07:22:00,34.3,-14.6,30.65,NNW,338,9.0,12.0,11,0.00,,,0.00,meteohub,2013-03-19 13:22:00,
2013-03-19 07:28:00,34.5,-14.4,30.65,NNW,338,9.0,15.0,11,0.00,,,0.00,meteohub,2013-03-19 13:28:00,
2013-03-19 07:33:00,34.9,-14.1,30.65,NNW,338,9.0,15.0,11,0.00,,,0.00,meteohub,2013-03-19 13:33:00,
2013-03-19 07:38:00,34.9,-14.1,30.65,NNW,338,7.0,15.0,11,0.00,,,0.00,meteohub,2013-03-19 13:38:00,
2013-03-19 07:43:00,34.9,-14.1,30.65,NNW,338,6.0,13.0,11,0.00,,,0.00,meteohub,2013-03-19 13:43:00,
2013-03-19 07:48:00,34.9,-14.1,30.65,NNW,338,5.0,13.0,11,0.00,,,0.00,meteohub,2013-03-19 13:48:00,
2013-03-19 07:53:00,34.9,-14.1,30.65,NNW,338,4.0,13.0,11,0.00,,,0.00,meteohub,2013-03-19 13:53:00,
2013-03-19 07:59:00,34.7,-14.3,30.65,NNW,338,2.0,11.0,11,0.00,,,0.00,meteohub,2013-03-19 13:59:00,
2013-03-19 08:04:00,34.7,-14.3,30.65,WNW,292,4.0,11.0,11,0.00,,,0.00,meteohub,2013-03-19 14:04:00,
2013-03-19 08:09:00,34.9,-14.1,30.65,SSW,202,7.0,10.0,11,0.00,,,0.00,meteohub,2013-03-19 14:09:00,
2013-03-19 08:14:00,35.4,-13.7,30.65,SSW,202,3.0,6.0,11,0.00,,,0.00,meteohub,2013-03-19 14:14:00,
2013-03-19 08:19:00,37.4,-14.1,30.65,WSW,248,2.0,7.0,10,0.00,,,0.00,meteohub,2013-03-19 14:19:00,
2013-03-19 08:24:00,39.2,-12.6,30.65,East,90,4.0,7.0,10,0.00,,,0.00,meteohub,2013-03-19 14:24:00,
2013-03-19 08:29:00,39.9,-12.1,30.65,WSW,248,2.0,6.0,10,0.00,,,0.00,meteohub,2013-03-19 14:29:00,
2013-03-19 08:35:00,40.3,-11.7,30.68,NNW,338,6.0,8.0,10,0.00,,,0.00,meteohub,2013-03-19 14:35:00,
2013-03-19 08:40:00,40.6,-11.6,30.68,NNE,22,3.0,8.0,10,0.00,,,0.00,meteohub,2013-03-19 14:40:00,
2013-03-19 08:46:00,40.6,-11.6,30.68,WNW,292,6.0,8.0,10,0.00,,,0.00,meteohub,2013-03-19 14:46:00,
2013-03-19 08:51:00,41.0,-11.2,30.68,NNW,338,6.0,11.0,10,0.00,,,0.00,meteohub,2013-03-19 14:51:00,
2013-03-19 08:56:00,41.2,-11.2,30.68,NNE,22,4.0,11.0,10,0.00,,,0.00,meteohub,2013-03-19 14:56:00,
2013-03-19 09:01:00,41.7,-10.7,30.68,SSE,158,4.0,11.0,10,0.00,,,0.00,meteohub,2013-03-19 15:01:00,
2013-03-19 09:07:00,42.3,-10.3,30.68,SSE,158,2.0,17.0,10,0.00,,,0.00,meteohub,2013-03-19 15:07:00,
2013-03-19 09:12:00,42.3,-10.3,30.68,NNE,22,5.0,17.0,10,0.00,,,0.00,meteohub,2013-03-19 15:12:00,
2013-03-19 09:17:00,41.2,-11.2,30.68,ESE,112,6.0,11.0,10,0.00,,,0.00,meteohub,2013-03-19 15:17:00,
2013-03-19 09:22:00,41.9,-10.5,30.68,NNW,338,3.0,13.0,10,0.00,,,0.00,meteohub,2013-03-19 15:22:00,
2013-03-19 09:28:00,43.0,-11.9,30.68,NNW,338,11.0,11.0,9,0.00,,,0.00,meteohub,2013-03-19 15:28:00,
2013-03-19 09:33:00,44.1,-11.0,30.68,ESE,112,8.0,15.0,9,0.00,,,0.00,meteohub,2013-03-19 15:33:00,
2013-03-19 09:38:00,45.1,-10.1,30.68,WSW,248,6.0,15.0,9,0.00,,,0.00,meteohub,2013-03-19 15:38:00,
2013-03-19 09:43:00,46.2,-9.4,30.68,NNE,22,3.0,15.0,9,0.00,,,0.00,meteohub,2013-03-19 15:43:00,
2013-03-19 09:48:00,46.4,-11.6,30.68,NNW,338,6.0,9.0,8,0.00,,,0.00,meteohub,2013-03-19 15:48:00,
2013-03-19 09:54:00,46.4,-11.6,30.68,NNW,338,7.0,11.0,8,0.00,,,0.00,meteohub,2013-03-19 15:54:00,
2013-03-19 09:59:00,47.7,-10.7,30.68,SSE,158,6.0,23.0,8,0.00,,,0.00,meteohub,2013-03-19 15:59:00,
2013-03-19 10:04:00,48.2,-10.3,30.68,SSE,158,6.0,23.0,8,0.00,,,0.00,meteohub,2013-03-19 16:04:00,
2013-03-19 10:09:00,46.9,-11.2,30.68,NNW,338,6.0,16.0,8,0.00,,,0.00,meteohub,2013-03-19 16:09:00,
2013-03-19 10:14:00,47.3,-10.8,30.68,NNW,338,6.0,15.0,8,0.00,,,0.00,meteohub,2013-03-19 16:14:00,
2013-03-19 10:20:00,47.5,-10.8,30.65,NNE,22,11.0,16.0,8,0.00,,,0.00,meteohub,2013-03-19 16:20:00,
2013-03-19 10:25:00,47.1,-11.0,30.65,NNE,22,17.0,22.0,8,0.00,,,0.00,meteohub,2013-03-19 16:25:00,
2013-03-19 10:30:00,48.4,-10.1,30.65,NNW,338,6.0,22.0,8,0.00,,,0.00,meteohub,2013-03-19 16:30:00,
2013-03-19 10:36:00,47.8,-10.5,30.65,NNW,338,10.0,22.0,8,0.00,,,0.00,meteohub,2013-03-19 16:36:00,
2013-03-19 10:41:00,47.7,-10.7,30.65,WNW,292,11.0,26.0,8,0.00,,,0.00,meteohub,2013-03-19 16:41:00,
2013-03-19 10:46:00,48.2,-10.3,30.65,NNE,22,12.0,26.0,8,0.00,,,0.00,meteohub,2013-03-19 16:46:00,
2013-03-19 10:52:00,48.4,-10.1,30.65,WNW,292,9.0,26.0,8,0.00,,,0.00,meteohub,2013-03-19 16:52:00,
2013-03-19 10:57:00,50.2,-8.7,30.65,NW,315,4.0,20.0,8,0.00,,,0.00,meteohub,2013-03-19 16:57:00,
2013-03-19 11:02:00,50.2,-8.7,30.65,NNW,338,15.0,20.0,8,0.00,,,0.00,meteohub,2013-03-19 17:02:00,
2013-03-19 11:07:00,49.8,-9.0,30.65,NNW,338,19.0,20.0,8,0.00,,,0.00,meteohub,2013-03-19 17:07:00,
2013-03-19 11:12:00,50.0,-8.9,30.65,NNW,338,13.0,23.0,8,0.00,,,0.00,meteohub,2013-03-19 17:12:00,
2013-03-19 11:17:00,50.9,-8.1,30.65,NNW,338,3.0,23.0,8,0.00,,,0.00,meteohub,2013-03-19 17:17:00,
2013-03-19 11:22:00,50.4,-8.7,30.65,NNW,338,13.0,21.0,8,0.00,,,0.00,meteohub,2013-03-19 17:22:00,
2013-03-19 11:27:00,50.5,-8.5,30.65,NNE,22,11.0,20.0,8,0.00,,,0.00,meteohub,2013-03-19 17:27:00,
2013-03-19 11:32:00,51.1,-8.1,30.65,NNW,338,17.0,20.0,8,0.00,,,0.00,meteohub,2013-03-19 17:32:00,
2013-03-19 11:38:00,51.4,-7.8,30.65,North,0,13.0,20.0,8,0.00,,,0.00,meteohub,2013-03-19 17:38:00,
2013-03-19 11:43:00,52.2,-9.9,30.65,NNW,338,9.0,22.0,7,0.00,,,0.00,meteohub,2013-03-19 17:43:00,
2013-03-19 11:48:00,53.4,-9.0,30.65,SSW,202,4.0,22.0,7,0.00,,,0.00,meteohub,2013-03-19 17:48:00,
2013-03-19 11:53:00,54.3,-8.3,30.65,WNW,292,6.0,22.0,7,0.00,,,0.00,meteohub,2013-03-19 17:53:00,
2013-03-19 11:58:00,54.9,-8.0,30.65,NNW,338,2.0,15.0,7,0.00,,,0.00,meteohub,2013-03-19 17:58:00,
2013-03-19 12:04:00,55.4,-10.7,30.65,WSW,248,2.0,13.0,6,0.00,,,0.00,meteohub,2013-03-19 18:04:00,
2013-03-19 12:09:00,54.5,-8.1,30.65,WSW,248,11.0,12.0,7,0.00,,,0.00,meteohub,2013-03-19 18:09:00,
2013-03-19 12:14:00,54.0,-8.7,30.65,SSW,202,6.0,12.0,7,0.00,,,0.00,meteohub,2013-03-19 18:14:00,
2013-03-19 12:19:00,55.8,-10.5,30.65,NNW,338,6.0,12.0,6,0.00,,,0.00,meteohub,2013-03-19 18:19:00,
2013-03-19 12:25:00,54.5,-8.1,30.65,NNW,338,16.0,16.0,7,0.00,,,0.00,meteohub,2013-03-19 18:25:00,
2013-03-19 12:30:00,54.7,-8.1,30.65,NNW,338,5.0,18.0,7,0.00,,,0.00,meteohub,2013-03-19 18:30:00,
2013-03-19 12:35:00,54.1,-8.5,30.65,WNW,292,10.0,20.0,7,0.00,,,0.00,meteohub,2013-03-19 18:35:00,
2013-03-19 12:40:00,56.5,-9.9,30.65,ESE,112,6.0,20.0,6,0.00,,,0.00,meteohub,2013-03-19 18:40:00,
2013-03-19 12:47:00,58.6,-8.3,30.65,WNW,292,6.0,20.0,6,0.00,,,0.00,meteohub,2013-03-19 18:47:00,
2013-03-19 12:52:00,56.7,-9.8,30.62,NNE,22,6.0,13.0,6,0.00,,,0.00,meteohub,2013-03-19 18:52:00,
2013-03-19 12:57:00,57.6,-9.0,30.62,WNW,292,4.0,14.0,6,0.00,,,0.00,meteohub,2013-03-19 18:57:00,
2013-03-19 13:02:00,58.5,-8.5,30.62,WSW,248,6.0,14.0,6,0.00,,,0.00,meteohub,2013-03-19 19:02:00,
2013-03-19 13:07:00,58.1,-8.7,30.65,NNE,22,4.0,20.0,6,0.00,,,0.00,meteohub,2013-03-19 19:07:00,
2013-03-19 13:12:00,57.0,-9.4,30.65,NNE,22,15.0,20.0,6,0.00,,,0.00,meteohub,2013-03-19 19:12:00,
2013-03-19 13:17:00,55.8,-10.5,30.65,NNW,338,15.0,20.0,6,0.00,,,0.00,meteohub,2013-03-19 19:17:00,
2013-03-19 13:22:00,55.9,-10.3,30.65,NW,315,6.0,18.0,6,0.00,,,0.00,meteohub,2013-03-19 19:22:00,
2013-03-19 13:27:00,56.8,-9.6,30.65,NNW,338,8.0,18.0,6,0.00,,,0.00,meteohub,2013-03-19 19:27:00,
2013-03-19 13:32:00,58.5,-8.5,30.65,NNW,338,4.0,17.0,6,0.00,,,0.00,meteohub,2013-03-19 19:32:00,
2013-03-19 13:37:00,57.6,-9.0,30.65,NNW,338,10.0,17.0,6,0.00,,,0.00,meteohub,2013-03-19 19:37:00,
2013-03-19 13:43:00,57.2,-9.4,30.65,NNE,22,12.0,17.0,6,0.00,,,0.00,meteohub,2013-03-19 19:43:00,
2013-03-19 13:48:00,57.0,-9.4,30.65,NNE,22,11.0,17.0,6,0.00,,,0.00,meteohub,2013-03-19 19:48:00,
2013-03-19 13:53:00,57.6,-9.0,30.65,NNW,338,12.0,17.0,6,0.00,,,0.00,meteohub,2013-03-19 19:53:00,
2013-03-19 13:58:00,58.6,-8.3,30.65,NNW,338,11.0,17.0,6,0.00,,,0.00,meteohub,2013-03-19 19:58:00,
2013-03-19 14:04:00,59.0,-8.0,30.65,NNW,338,15.0,15.0,6,0.00,,,0.00,meteohub,2013-03-19 20:04:00,
2013-03-19 14:09:00,57.0,-9.4,30.65,NNW,338,6.0,13.0,6,0.00,,,0.00,meteohub,2013-03-19 20:09:00,
2013-03-19 14:14:00,59.4,-7.8,30.65,NNW,338,4.0,22.0,6,0.00,,,0.00,meteohub,2013-03-19 20:14:00,
2013-03-19 14:19:00,58.8,-8.1,30.65,WSW,248,6.0,22.0,6,0.00,,,0.00,meteohub,2013-03-19 20:19:00,
2013-03-19 14:24:00,61.2,-10.1,30.65,NNW,338,2.0,22.0,5,0.00,,,0.00,meteohub,2013-03-19 20:24:00,
2013-03-19 14:29:00,60.1,-7.2,30.65,SSE,158,8.0,15.0,6,0.00,,,0.00,meteohub,2013-03-19 20:29:00,
2013-03-19 14:34:00,59.4,-7.8,30.62,WNW,292,8.0,15.0,6,0.00,,,0.00,meteohub,2013-03-19 20:34:00,
2013-03-19 14:39:00,59.2,-8.0,30.62,WNW,292,15.0,15.0,6,0.00,,,0.00,meteohub,2013-03-19 20:39:00,
2013-03-19 14:45:00,58.3,-8.5,30.62,WSW,248,10.0,13.0,6,0.00,,,0.00,meteohub,2013-03-19 20:45:00,
2013-03-19 14:50:00,58.1,-8.7,30.65,NNE,22,10.0,15.0,6,0.00,,,0.00,meteohub,2013-03-19 20:50:00,
2013-03-19 14:55:00,58.6,-8.3,30.65,NNW,338,8.0,14.0,6,0.00,,,0.00,meteohub,2013-03-19 20:55:00,
2013-03-19 15:00:00,58.8,-8.1,30.65,NNW,338,3.0,14.0,6,0.00,,,0.00,meteohub,2013-03-19 21:00:00,
2013-03-19 15:05:00,58.8,-8.1,30.62,SSW,202,4.0,15.0,6,0.00,,,0.00,meteohub,2013-03-19 21:05:00,
2013-03-19 15:10:00,58.1,-8.7,30.62,WNW,292,8.0,15.0,6,0.00,,,0.00,meteohub,2013-03-19 21:10:00,
2013-03-19 15:16:00,58.5,-8.5,30.62,WNW,292,8.0,13.0,6,0.00,,,0.00,meteohub,2013-03-19 21:16:00,
2013-03-19 15:21:00,58.5,-8.5,30.65,NW,315,6.0,13.0,6,0.00,,,0.00,meteohub,2013-03-19 21:21:00,
2013-03-19 15:26:00,58.8,-8.1,30.65,WSW,248,5.0,13.0,6,0.00,,,0.00,meteohub,2013-03-19 21:26:00,
2013-03-19 15:31:00,58.1,-8.7,30.65,WNW,292,9.0,14.0,6,0.00,,,0.00,meteohub,2013-03-19 21:31:00,
2013-03-19 15:37:00,59.4,-7.8,30.65,NNW,338,2.0,14.0,6,0.00,,,0.00,meteohub,2013-03-19 21:37:00,
2013-03-19 15:42:00,58.8,-8.1,30.65,SSW,202,5.0,14.0,6,0.00,,,0.00,meteohub,2013-03-19 21:42:00,
2013-03-19 15:47:00,58.8,-8.1,30.65,ENE,68,4.0,22.0,6,0.00,,,0.00,meteohub,2013-03-19 21:47:00,
2013-03-19 15:52:00,59.7,-7.6,30.65,WNW,292,6.0,22.0,6,0.00,,,0.00,meteohub,2013-03-19 21:52:00,
2013-03-19 15:57:00,59.7,-7.6,30.65,WSW,248,4.0,12.0,6,0.00,,,0.00,meteohub,2013-03-19 21:57:00,
2013-03-19 16:02:00,57.9,-8.9,30.65,WNW,292,8.0,16.0,6,0.00,,,0.00,meteohub,2013-03-19 22:02:00,
2013-03-19 16:08:00,59.2,-8.0,30.65,WNW,292,6.0,16.0,6,0.00,,,0.00,meteohub,2013-03-19 22:08:00,
2013-03-19 16:13:00,57.9,-8.9,30.65,NNE,22,13.0,16.0,6,0.00,,,0.00,meteohub,2013-03-19 22:13:00,
2013-03-19 16:18:00,58.3,-8.5,30.65,NNW,338,11.0,13.0,6,0.00,,,0.00,meteohub,2013-03-19 22:18:00,
2013-03-19 16:23:00,57.6,-9.0,30.68,NNW,338,15.0,15.0,6,0.00,,,0.00,meteohub,2013-03-19 22:23:00,
2013-03-19 16:29:00,57.2,-9.4,30.68,NNW,338,13.0,17.0,6,0.00,,,0.00,meteohub,2013-03-19 22:29:00,
2013-03-19 16:34:00,57.9,-8.9,30.68,NNW,338,10.0,17.0,6,0.00,,,0.00,meteohub,2013-03-19 22:34:00,
2013-03-19 16:39:00,57.7,-9.0,30.68,NNW,338,6.0,17.0,6,0.00,,,0.00,meteohub,2013-03-19 22:39:00,
2013-03-19 16:44:00,57.0,-9.4,30.68,NNW,338,14.0,17.0,6,0.00,,,0.00,meteohub,2013-03-19 22:44:00,
2013-03-19 16:50:00,57.6,-9.0,30.71,SSE,158,12.0,15.0,6,0.00,,,0.00,meteohub,2013-03-19 22:50:00,
2013-03-19 16:55:00,57.6,-9.0,30.71,WSW,248,6.0,15.0,6,0.00,,,0.00,meteohub,2013-03-19 22:55:00,
2013-03-19 17:00:00,56.8,-9.6,30.71,WSW,248,9.0,13.0,6,0.00,,,0.00,meteohub,2013-03-19 23:00:00,
2013-03-19 17:05:00,57.2,-9.4,30.71,SSW,202,7.0,13.0,6,0.00,,,0.00,meteohub,2013-03-19 23:05:00,
2013-03-19 17:11:00,57.2,-9.4,30.71,WNW,292,8.0,13.0,6,0.00,,,0.00,meteohub,2013-03-19 23:11:00,
2013-03-19 17:16:00,57.4,-9.2,30.71,WNW,292,8.0,10.0,6,0.00,,,0.00,meteohub,2013-03-19 23:16:00,
2013-03-19 17:21:00,57.4,-9.2,30.71,NNW,338,6.0,10.0,6,0.00,,,0.00,meteohub,2013-03-19 23:21:00,
2013-03-19 17:26:00,56.7,-9.8,30.71,WNW,292,7.0,10.0,6,0.00,,,0.00,meteohub,2013-03-19 23:26:00,
2013-03-19 17:31:00,55.8,-10.5,30.71,WNW,292,7.0,13.0,6,0.00,,,0.00,meteohub,2013-03-19 23:31:00,
2013-03-19 17:37:00,54.1,-8.5,30.68,WNW,292,6.0,13.0,7,0.00,,,0.00,meteohub,2013-03-19 23:37:00,
2013-03-19 17:42:00,54.0,-8.7,30.68,NW,315,10.0,16.0,7,0.00,,,0.00,meteohub,2013-03-19 23:42:00,
2013-03-19 17:47:00,53.6,-8.9,30.68,SSW,202,9.0,16.0,7,0.00,,,0.00,meteohub,2013-03-19 23:47:00,
2013-03-19 17:52:00,53.4,-9.0,30.68,WNW,292,6.0,16.0,7,0.00,,,0.00,meteohub,2013-03-19 23:52:00,
2013-03-19 17:57:00,52.7,-9.6,30.68,NNW,338,9.0,13.0,7,0.00,,,0.00,meteohub,2013-03-19 23:57:00,
2013-03-19 18:02:00,52.3,-9.8,30.68,WNW,292,3.0,10.0,7,0.00,,,0.00,meteohub,2013-03-20 00:02:00,
2013-03-19 18:07:00,52.2,-9.9,30.71,WNW,292,4.0,10.0,7,0.00,,,0.00,meteohub,2013-03-20 00:07:00,
2013-03-19 18:13:00,51.4,-7.8,30.71,WNW,292,3.0,10.0,8,0.00,,,0.00,meteohub,2013-03-20 00:13:00,
2013-03-19 18:18:00,50.9,-8.1,30.71,WNW,292,9.0,17.0,8,0.00,,,0.00,meteohub,2013-03-20 00:18:00,
2013-03-19 18:23:00,50.4,-8.7,30.74,WNW,292,3.0,17.0,8,0.00,,,0.00,meteohub,2013-03-20 00:23:00,
2013-03-19 18:28:00,50.0,-8.9,30.74,NNW,338,5.0,17.0,8,0.00,,,0.00,meteohub,2013-03-20 00:28:00,
2013-03-19 18:33:00,48.0,-10.3,30.74,WNW,292,5.0,9.0,8,0.00,,,0.00,meteohub,2013-03-20 00:33:00,
2013-03-19 18:39:00,47.1,-11.0,30.74,NNW,338,5.0,10.0,8,0.00,,,0.00,meteohub,2013-03-20 00:39:00,
2013-03-19 18:44:00,46.4,-11.6,30.74,NNE,22,6.0,10.0,8,0.00,,,0.00,meteohub,2013-03-20 00:44:00,
2013-03-19 18:49:00,45.9,-9.6,30.74,NNW,338,4.0,9.0,9,0.00,,,0.00,meteohub,2013-03-20 00:49:00,
2013-03-19 18:54:00,45.3,-10.1,30.74,WNW,292,4.0,9.0,9,0.00,,,0.00,meteohub,2013-03-20 00:54:00,
2013-03-19 19:00:00,44.6,-10.7,30.74,WNW,292,3.0,9.0,9,0.00,,,0.00,meteohub,2013-03-20 01:00:00,
2013-03-19 19:05:00,43.7,-11.2,30.74,NNW,338,2.0,9.0,9,0.00,,,0.00,meteohub,2013-03-20 01:05:00,
2013-03-19 19:10:00,43.7,-11.2,30.74,WNW,292,3.0,6.0,9,0.00,,,0.00,meteohub,2013-03-20 01:10:00,
2013-03-19 19:15:00,42.4,-10.1,30.74,NNW,338,3.0,6.0,10,0.00,,,0.00,meteohub,2013-03-20 01:15:00,
2013-03-19 19:20:00,42.1,-10.5,30.74,North,0,3.0,6.0,10,0.00,,,0.00,meteohub,2013-03-20 01:20:00,
2013-03-19 19:25:00,41.5,-10.8,30.74,NNW,338,3.0,6.0,10,0.00,,,0.00,meteohub,2013-03-20 01:25:00,
2013-03-19 19:31:00,41.7,-10.7,30.74,NNW,338,2.0,6.0,10,0.00,,,0.00,meteohub,2013-03-20 01:31:00,
2013-03-19 19:36:00,41.4,-11.0,30.74,NNW,338,6.0,6.0,10,0.00,,,0.00,meteohub,2013-03-20 01:36:00,
2013-03-19 19:42:00,40.6,-11.6,30.77,NNW,338,4.0,6.0,10,0.00,,,0.00,meteohub,2013-03-20 01:42:00,
2013-03-19 19:47:00,41.2,-11.2,30.77,NNW,338,7.0,7.0,10,0.00,,,0.00,meteohub,2013-03-20 01:47:00,
2013-03-19 19:52:00,41.4,-11.0,30.77,North,0,5.0,8.0,10,0.00,,,0.00,meteohub,2013-03-20 01:52:00,
2013-03-19 19:57:00,41.0,-11.2,30.77,WNW,292,3.0,9.0,10,0.00,,,0.00,meteohub,2013-03-20 01:57:00,
2013-03-19 20:02:00,39.9,-12.1,30.77,NNW,338,0.0,9.0,10,0.00,,,0.00,meteohub,2013-03-20 02:02:00,
2013-03-19 20:07:00,39.4,-12.5,30.74,WNW,292,2.0,6.0,10,0.00,,,0.00,meteohub,2013-03-20 02:07:00,
2013-03-19 20:12:00,38.8,-13.0,30.74,NNE,22,3.0,6.0,10,0.00,,,0.00,meteohub,2013-03-20 02:12:00,
2013-03-19 20:17:00,39.0,-12.8,30.74,WNW,292,0.0,4.0,10,0.00,,,0.00,meteohub,2013-03-20 02:17:00,
2013-03-19 20:22:00,38.3,-13.4,30.74,WSW,248,1.0,4.0,10,0.00,,,0.00,meteohub,2013-03-20 02:22:00,
2013-03-19 20:27:00,38.1,-13.5,30.74,East,90,3.0,4.0,10,0.00,,,0.00,meteohub,2013-03-20 02:27:00,
2013-03-19 20:32:00,37.4,-14.1,30.74,NNW,338,13.0,19.0,10,0.00,,,0.00,meteohub,2013-03-20 02:32:00,
2013-03-19 20:38:00,35.8,-8.7,30.83,NNW,338,7.0,19.0,14,0.00,,,0.00,meteohub,2013-03-20 02:38:00,
2013-03-19 20:43:00,34.5,6.4,30.83,NNW,338,6.0,19.0,30,0.00,,,0.00,meteohub,2013-03-20 02:43:00,
2013-03-19 20:48:00,33.6,8.2,30.83,NNE,22,5.0,13.0,34,0.00,,,0.00,meteohub,2013-03-20 02:48:00,
2013-03-19 20:53:00,32.2,11.7,30.83,WNW,292,13.0,13.0,42,0.00,,,0.00,meteohub,2013-03-20 02:53:00,
2013-03-19 20:58:00,30.9,12.6,30.83,NNW,338,17.0,17.0,46,0.00,,,0.00,meteohub,2013-03-20 02:58:00,
2013-03-19 21:04:00,30.2,13.8,30.83,NNW,338,16.0,18.0,50,0.00,,,0.00,meteohub,2013-03-20 03:04:00,
2013-03-19 21:09:00,29.8,14.0,30.83,NNW,338,13.0,19.0,51,0.00,,,0.00,meteohub,2013-03-20 03:09:00,
2013-03-19 21:14:00,29.5,14.0,30.83,NNW,338,9.0,20.0,52,0.00,,,0.00,meteohub,2013-03-20 03:14:00,
2013-03-19 21:19:00,29.1,13.6,30.86,NNW,338,11.0,21.0,52,0.00,,,0.00,meteohub,2013-03-20 03:19:00,
2013-03-19 21:24:00,28.9,13.5,30.86,NNW,338,11.0,21.0,52,0.00,,,0.00,meteohub,2013-03-20 03:24:00,
2013-03-19 21:30:00,28.6,13.6,30.86,NNW,338,8.0,13.0,53,0.00,,,0.00,meteohub,2013-03-20 03:30:00,
2013-03-19 21:48:00,27.0,11.3,30.86,NNE,22,0.0,9.0,51,0.00,,,0.00,meteohub,2013-03-20 03:48:00,
2013-03-19 21:53:00,26.8,11.5,-100.00,ENE,68,3.0,5.0,52,0.00,,,0.00,meteohub,2013-03-20 03:53:00,
2013-03-19 22:15:00,26.4,12.4,30.89,ESE,112,6.0,6.0,55,0.00,,,0.00,meteohub,2013-03-20 04:15:00,
2013-03-19 22:16:00,26.4,12.4,30.89,ESE,112,6.0,6.0,55,0.00,,,0.00,meteohub,2013-03-20 04:16:00,
2013-03-19 22:18:00,26.4,12.4,30.89,East,90,3.0,4.0,55,0.00,,,0.00,meteohub,2013-03-20 04:18:00,
2013-03-19 22:36:00,25.2,10.9,30.89,ENE,68,2.0,3.0,54,0.00,,,0.00,meteohub,2013-03-20 04:36:00,
2013-03-19 22:37:00,25.2,10.9,30.89,ENE,68,2.0,3.0,54,0.00,,,0.00,meteohub,2013-03-20 04:37:00,
2013-03-19 22:42:00,25.0,10.8,30.89,SSE,158,1.0,3.0,54,0.00,,,0.00,meteohub,2013-03-20 04:42:00,
2013-03-19 22:47:00,24.8,10.6,30.89,SSE,158,3.0,3.0,54,0.00,,,0.00,meteohub,2013-03-20 04:47:00,
2013-03-19 22:52:00,24.6,10.4,30.89,ESE,112,2.0,3.0,54,0.00,,,0.00,meteohub,2013-03-20 04:52:00,
2013-03-19 22:57:00,24.4,10.6,30.89,SSE,158,1.0,3.0,55,0.00,,,0.00,meteohub,2013-03-20 04:57:00,
2013-03-19 23:02:00,23.9,9.3,30.89,WSW,248,1.0,3.0,53,0.00,,,0.00,meteohub,2013-03-20 05:02:00,
2013-03-19 23:07:00,23.2,8.6,30.89,WSW,248,0.0,2.0,53,0.00,,,0.00,meteohub,2013-03-20 05:07:00,
2013-03-19 23:13:00,22.8,8.8,30.89,WSW,248,0.0,1.0,54,0.00,,,0.00,meteohub,2013-03-20 05:13:00,
2013-03-19 23:18:00,22.5,9.1,30.89,ESE,112,0.0,1.0,56,0.00,,,0.00,meteohub,2013-03-20 05:18:00,
2013-03-19 23:23:00,22.1,8.1,30.89,NNW,338,1.0,2.0,54,0.00,,,0.00,meteohub,2013-03-20 05:23:00,
2013-03-19 23:29:00,21.9,7.9,30.89,NNE,22,2.0,2.0,54,0.00,,,0.00,meteohub,2013-03-20 05:29:00,
2013-03-19 23:34:00,21.9,8.2,30.89,NNE,22,0.0,2.0,55,0.00,,,0.00,meteohub,2013-03-20 05:34:00,
2013-03-19 23:39:00,21.7,8.4,30.89,ESE,112,2.0,2.0,56,0.00,,,0.00,meteohub,2013-03-20 05:39:00,
2013-03-19 23:44:00,21.6,8.8,30.89,East,90,0.0,2.0,57,0.00,,,0.00,meteohub,2013-03-20 05:44:00,
2013-03-19 23:49:00,21.6,8.8,30.89,SSE,158,0.0,2.0,57,0.00,,,0.00,meteohub,2013-03-20 05:49:00,
2013-03-19 23:54:00,21.7,8.4,30.89,NNE,22,0.0,3.0,56,0.00,,,0.00,meteohub,2013-03-20 05:54:00,